Location: La Silve
(44.2414°N, 5.8889°E)
Time: 10:09:20
(UTC+00:00)

Meteor 2-12 Rocket - Pass Details

Date: 01 December 2020
Orbit: 935 x 958 km, 82.5° (Epoch: 26 January)

Event Time Altitude Azimuth Distance (km) Brightness Sun altitude
Rises 16:26:39 0° 352° (N) 3,645 7.3 -5.2°
Reaches altitude 10° 16:29:10 10° 354° (N) 2,693 6.6 -5.6°
Maximum altitude 16:35:20 78° 81° (E) 977 4.4 -6.6°
Drops below altitude 10° 16:41:26 10° 168° (SSE) 2,659 6.9 -7.6°
Sets 16:43:54 0° 169° (S) 3,596 7.6 -8.1°
